Year,Month,Day,Hour,Minute,Value (Times are PST for temperature in C)
2017,09,18,00,00,8.40
2017,09,18,00,01,8.40
2017,09,18,00,02,8.40
2017,09,18,00,03,8.40
2017,09,18,00,04,8.40
2017,09,18,00,05,8.40
2017,09,18,00,06,8.40
2017,09,18,00,07,8.40
2017,09,18,00,08,8.40
2017,09,18,00,09,8.40
2017,09,18,00,10,8.40
2017,09,18,00,11,8.40
2017,09,18,00,12,8.40
2017,09,18,00,13,8.40
2017,09,18,00,14,8.40
2017,09,18,00,15,8.40
2017,09,18,00,16,8.40
2017,09,18,00,17,8.40
2017,09,18,00,18,8.30
2017,09,18,00,19,8.40
2017,09,18,00,20,8.30
2017,09,18,00,21,8.40
2017,09,18,00,22,8.40
2017,09,18,00,23,8.40
2017,09,18,00,24,8.40
2017,09,18,00,25,8.40
2017,09,18,00,26,8.40
2017,09,18,00,27,8.40
2017,09,18,00,28,8.40
2017,09,18,00,29,8.40
2017,09,18,00,30,8.40
2017,09,18,00,31,8.40
2017,09,18,00,32,8.40
2017,09,18,00,33,8.40
2017,09,18,00,34,8.40
2017,09,18,00,35,8.40
2017,09,18,00,36,8.40
2017,09,18,00,37,8.40
2017,09,18,00,38,8.40
2017,09,18,00,39,8.40
2017,09,18,00,40,8.40
2017,09,18,00,41,8.50
2017,09,18,00,42,8.50
2017,09,18,00,43,8.50
2017,09,18,00,44,8.50
2017,09,18,00,45,8.40
2017,09,18,00,46,8.40
2017,09,18,00,47,8.40
2017,09,18,00,48,8.50
2017,09,18,00,49,8.50
2017,09,18,00,50,8.50
2017,09,18,00,51,8.50
2017,09,18,00,52,8.50
2017,09,18,00,53,8.50
2017,09,18,00,54,8.50
2017,09,18,00,55,8.50
2017,09,18,00,56,8.50
2017,09,18,00,57,8.50
2017,09,18,00,58,8.50
2017,09,18,00,59,8.50
2017,09,18,01,00,8.50
2017,09,18,01,01,8.50
2017,09,18,01,02,8.50
2017,09,18,01,03,8.40
2017,09,18,01,04,8.40
2017,09,18,01,05,8.40
2017,09,18,01,06,8.40
2017,09,18,01,07,8.40
2017,09,18,01,08,8.40
2017,09,18,01,09,8.40
2017,09,18,01,10,8.40
2017,09,18,01,11,8.40
2017,09,18,01,12,8.40
2017,09,18,01,13,8.40
2017,09,18,01,14,8.40
2017,09,18,01,15,8.40
2017,09,18,01,16,8.40
2017,09,18,01,17,8.40
2017,09,18,01,18,8.40
2017,09,18,01,19,8.40
2017,09,18,01,20,8.40
2017,09,18,01,21,8.40
2017,09,18,01,22,8.40
2017,09,18,01,23,8.40
2017,09,18,01,24,8.40
2017,09,18,01,25,8.50
2017,09,18,01,26,8.50
2017,09,18,01,27,8.50
2017,09,18,01,28,8.50
2017,09,18,01,29,8.50
2017,09,18,01,30,8.50
2017,09,18,01,31,8.50
2017,09,18,01,32,8.60
2017,09,18,01,33,8.60
2017,09,18,01,34,8.70
2017,09,18,01,35,8.70
2017,09,18,01,36,8.80
2017,09,18,01,37,8.80
2017,09,18,01,38,8.80
2017,09,18,01,39,8.90
2017,09,18,01,40,8.90
2017,09,18,01,41,8.90
2017,09,18,01,42,8.90
2017,09,18,01,43,8.90
2017,09,18,01,44,8.90
2017,09,18,01,45,9.00
2017,09,18,01,46,9.00
2017,09,18,01,47,9.10
2017,09,18,01,48,9.10
2017,09,18,01,49,9.10
2017,09,18,01,50,9.20
2017,09,18,01,51,9.30
2017,09,18,01,52,9.30
2017,09,18,01,53,9.40
2017,09,18,01,54,9.40
2017,09,18,01,55,9.40
2017,09,18,01,56,9.50
2017,09,18,01,57,9.50
2017,09,18,01,58,9.50
2017,09,18,01,59,9.50
2017,09,18,02,00,9.40
2017,09,18,02,01,9.40
2017,09,18,02,02,9.40
2017,09,18,02,03,9.40
2017,09,18,02,04,9.40
2017,09,18,02,05,9.40
2017,09,18,02,06,9.40
2017,09,18,02,07,9.40
2017,09,18,02,08,9.40
2017,09,18,02,09,9.40
2017,09,18,02,10,9.40
2017,09,18,02,11,9.40
2017,09,18,02,12,9.40
2017,09,18,02,13,9.40
2017,09,18,02,14,9.40
2017,09,18,02,15,9.40
2017,09,18,02,16,9.40
2017,09,18,02,17,9.40
2017,09,18,02,18,9.40
2017,09,18,02,19,9.40
2017,09,18,02,20,9.40
2017,09,18,02,21,9.40
2017,09,18,02,22,9.40
2017,09,18,02,23,9.30
2017,09,18,02,24,9.30
2017,09,18,02,25,9.30
2017,09,18,02,26,9.30
2017,09,18,02,27,9.30
2017,09,18,02,28,9.30
2017,09,18,02,29,9.30
2017,09,18,02,30,9.30
2017,09,18,02,31,9.30
2017,09,18,02,32,9.30
2017,09,18,02,33,9.30
2017,09,18,02,34,9.30
2017,09,18,02,35,9.30
2017,09,18,02,36,9.30
2017,09,18,02,37,9.30
2017,09,18,02,38,9.30
2017,09,18,02,39,9.30
2017,09,18,02,40,9.30
2017,09,18,02,41,9.30
2017,09,18,02,42,9.30
2017,09,18,02,43,9.30
2017,09,18,02,44,9.30
2017,09,18,02,45,9.30
2017,09,18,02,46,9.30
2017,09,18,02,47,9.30
2017,09,18,02,48,9.30
2017,09,18,02,49,9.30
2017,09,18,02,50,9.30
2017,09,18,02,51,9.30
2017,09,18,02,52,9.30
2017,09,18,02,53,9.30
2017,09,18,02,54,9.30
2017,09,18,02,55,9.30
2017,09,18,02,56,9.20
2017,09,18,02,57,9.20
2017,09,18,02,58,9.20
2017,09,18,02,59,9.20
2017,09,18,03,00,9.20
2017,09,18,03,01,9.20
2017,09,18,03,02,9.20
2017,09,18,03,03,9.20
2017,09,18,03,04,9.20
2017,09,18,03,05,9.20
2017,09,18,03,06,9.20
2017,09,18,03,07,9.20
2017,09,18,03,08,9.20
2017,09,18,03,09,9.20
2017,09,18,03,10,9.20
2017,09,18,03,11,9.20
2017,09,18,03,12,9.20
2017,09,18,03,13,9.20
2017,09,18,03,14,9.20
2017,09,18,03,15,9.20
2017,09,18,03,16,9.20
2017,09,18,03,17,9.20
2017,09,18,03,18,9.20
2017,09,18,03,19,9.30
2017,09,18,03,20,9.30
2017,09,18,03,21,9.30
2017,09,18,03,22,9.30
2017,09,18,03,23,9.30
2017,09,18,03,24,9.30
2017,09,18,03,25,9.30
2017,09,18,03,26,9.30
2017,09,18,03,27,9.30
2017,09,18,03,28,9.30
2017,09,18,03,29,9.30
2017,09,18,03,30,9.30
2017,09,18,03,31,9.30
2017,09,18,03,32,9.30
2017,09,18,03,33,9.30
2017,09,18,03,34,9.30
2017,09,18,03,35,9.30
2017,09,18,03,36,9.30
2017,09,18,03,37,9.20
2017,09,18,03,38,9.20
2017,09,18,03,39,9.20
2017,09,18,03,40,9.20
2017,09,18,03,41,9.20
2017,09,18,03,42,9.20
2017,09,18,03,43,9.20
2017,09,18,03,44,9.20
2017,09,18,03,45,9.20
2017,09,18,03,46,9.20
2017,09,18,03,47,9.20
2017,09,18,03,48,9.20
2017,09,18,03,49,9.20
2017,09,18,03,50,9.20
2017,09,18,03,51,9.20
2017,09,18,03,52,9.20
2017,09,18,03,53,9.20
2017,09,18,03,54,9.20
2017,09,18,03,55,9.20
2017,09,18,03,56,9.20
2017,09,18,03,57,9.20
2017,09,18,03,58,9.20
2017,09,18,03,59,9.20
2017,09,18,04,00,9.20
2017,09,18,04,01,9.20
2017,09,18,04,02,9.20
2017,09,18,04,03,9.20
2017,09,18,04,04,9.20
2017,09,18,04,05,9.20
2017,09,18,04,06,9.20
2017,09,18,04,07,9.20
2017,09,18,04,08,9.20
2017,09,18,04,09,9.20
2017,09,18,04,10,9.20
2017,09,18,04,11,9.20
2017,09,18,04,12,9.20
2017,09,18,04,13,9.20
2017,09,18,04,14,9.20
2017,09,18,04,15,9.20
2017,09,18,04,16,9.20
2017,09,18,04,17,9.20
2017,09,18,04,18,9.20
2017,09,18,04,19,9.20
2017,09,18,04,20,9.20
2017,09,18,04,21,9.20
2017,09,18,04,22,9.20
2017,09,18,04,23,9.20
2017,09,18,04,24,9.20
2017,09,18,04,25,9.20
2017,09,18,04,26,9.20
2017,09,18,04,27,9.20
2017,09,18,04,28,9.20
2017,09,18,04,29,9.20
2017,09,18,04,30,9.20
2017,09,18,04,31,9.20
2017,09,18,04,32,9.20
2017,09,18,04,33,9.20
2017,09,18,04,34,9.20
2017,09,18,04,35,9.10
2017,09,18,04,36,9.10
2017,09,18,04,37,9.10
2017,09,18,04,38,9.10
2017,09,18,04,39,9.10
2017,09,18,04,40,9.10
2017,09,18,04,41,9.10
2017,09,18,04,42,9.10
2017,09,18,04,43,9.10
2017,09,18,04,44,9.10
2017,09,18,04,45,9.10
2017,09,18,04,46,9.10
2017,09,18,04,47,9.10
2017,09,18,04,48,9.10
2017,09,18,04,49,9.10
2017,09,18,04,50,9.10
2017,09,18,04,51,9.10
2017,09,18,04,52,9.10
2017,09,18,04,53,9.10
2017,09,18,04,54,9.10
2017,09,18,04,55,9.10
2017,09,18,04,56,9.10
2017,09,18,04,57,9.10
2017,09,18,04,58,9.10
2017,09,18,04,59,9.10
2017,09,18,05,00,9.10
2017,09,18,05,01,9.10
2017,09,18,05,02,9.00
2017,09,18,05,03,9.00
2017,09,18,05,04,9.00
2017,09,18,05,05,9.00
2017,09,18,05,06,9.00
2017,09,18,05,07,9.00
2017,09,18,05,08,9.00
2017,09,18,05,09,9.00
2017,09,18,05,10,9.00
2017,09,18,05,11,9.00
2017,09,18,05,12,9.00
2017,09,18,05,13,9.00
2017,09,18,05,14,9.00
2017,09,18,05,15,9.00
2017,09,18,05,16,9.00
2017,09,18,05,17,9.00
2017,09,18,05,18,9.00
2017,09,18,05,19,9.10
2017,09,18,05,20,9.10
2017,09,18,05,21,9.10
2017,09,18,05,22,9.10
2017,09,18,05,23,9.10
2017,09,18,05,24,9.10
2017,09,18,05,25,9.10
2017,09,18,05,26,9.10
2017,09,18,05,27,9.10
2017,09,18,05,28,9.10
2017,09,18,05,29,9.10
2017,09,18,05,30,9.10
2017,09,18,05,31,9.10
2017,09,18,05,32,9.10
2017,09,18,05,33,9.10
2017,09,18,05,34,9.10
2017,09,18,05,35,9.10
2017,09,18,05,36,9.10
2017,09,18,05,37,9.00
2017,09,18,05,38,9.10
2017,09,18,05,39,9.10
2017,09,18,05,40,9.00
2017,09,18,05,41,9.00
2017,09,18,05,42,9.00
2017,09,18,05,43,9.00
2017,09,18,05,44,9.00
2017,09,18,05,45,9.00
2017,09,18,05,46,9.00
2017,09,18,05,47,9.00
2017,09,18,05,48,9.00
2017,09,18,05,49,9.00
2017,09,18,05,50,9.00
2017,09,18,05,51,9.00
2017,09,18,05,52,9.00
2017,09,18,05,53,9.00
2017,09,18,05,54,9.00
2017,09,18,05,55,9.00
2017,09,18,05,56,9.00
2017,09,18,05,57,9.00
2017,09,18,05,58,9.00
2017,09,18,05,59,9.00
2017,09,18,06,00,9.00
2017,09,18,06,01,9.00
2017,09,18,06,02,8.90
2017,09,18,06,03,8.90
2017,09,18,06,04,8.90
2017,09,18,06,05,8.90
2017,09,18,06,06,8.90
2017,09,18,06,07,8.90
2017,09,18,06,08,8.90
2017,09,18,06,09,8.80
2017,09,18,06,10,8.80
2017,09,18,06,11,8.80
2017,09,18,06,12,8.80
2017,09,18,06,13,8.80
2017,09,18,06,14,8.80
2017,09,18,06,15,8.80
2017,09,18,06,16,8.80
2017,09,18,06,17,8.80
2017,09,18,06,18,8.70
2017,09,18,06,19,8.70
2017,09,18,06,20,8.70
2017,09,18,06,21,8.70
2017,09,18,06,22,8.70
2017,09,18,06,23,8.70
2017,09,18,06,24,8.70
2017,09,18,06,25,8.70
2017,09,18,06,26,8.60
2017,09,18,06,27,8.60
2017,09,18,06,28,8.60
2017,09,18,06,29,8.60
2017,09,18,06,30,8.60
2017,09,18,06,31,8.60
2017,09,18,06,32,8.60
2017,09,18,06,33,8.50
2017,09,18,06,34,8.50
2017,09,18,06,35,8.50
2017,09,18,06,36,8.40
2017,09,18,06,37,8.40
2017,09,18,06,38,8.40
2017,09,18,06,39,8.40
2017,09,18,06,40,8.40
2017,09,18,06,41,8.30
2017,09,18,06,42,8.30
2017,09,18,06,43,8.30
2017,09,18,06,44,8.30
2017,09,18,06,45,8.30
2017,09,18,06,46,8.20
2017,09,18,06,47,8.20
2017,09,18,06,48,8.20
2017,09,18,06,49,8.20
2017,09,18,06,50,8.10
2017,09,18,06,51,8.10
2017,09,18,06,52,8.10
2017,09,18,06,53,8.00
2017,09,18,06,54,8.00
2017,09,18,06,55,8.00
2017,09,18,06,56,7.90
2017,09,18,06,57,7.90
2017,09,18,06,58,7.90
2017,09,18,06,59,7.90
2017,09,18,07,00,7.90
2017,09,18,07,01,7.80
2017,09,18,07,02,7.80
2017,09,18,07,03,7.80
2017,09,18,07,04,7.80
2017,09,18,07,05,7.70
2017,09,18,07,06,7.70
2017,09,18,07,07,7.70
2017,09,18,07,08,7.70
2017,09,18,07,09,7.70
2017,09,18,07,10,7.60
2017,09,18,07,11,7.60
2017,09,18,07,12,7.60
2017,09,18,07,13,7.60
2017,09,18,07,14,7.60
2017,09,18,07,15,7.50
2017,09,18,07,16,7.50
2017,09,18,07,17,7.50
2017,09,18,07,18,7.50
2017,09,18,07,19,7.50
2017,09,18,07,20,7.50
2017,09,18,07,21,7.50
2017,09,18,07,22,7.50
2017,09,18,07,23,7.40
2017,09,18,07,24,7.40
2017,09,18,07,25,7.40
2017,09,18,07,26,7.40
2017,09,18,07,27,7.40
2017,09,18,07,28,7.40
2017,09,18,07,29,7.40
2017,09,18,07,30,7.40
2017,09,18,07,31,7.40
2017,09,18,07,32,7.40
2017,09,18,07,33,7.30
2017,09,18,07,34,7.30
2017,09,18,07,35,7.30
2017,09,18,07,36,7.30
2017,09,18,07,37,7.30
2017,09,18,07,38,7.30
2017,09,18,07,39,7.30
2017,09,18,07,40,7.30
2017,09,18,07,41,7.30
2017,09,18,07,42,7.30
2017,09,18,07,43,7.30
2017,09,18,07,44,7.30
2017,09,18,07,45,7.30
2017,09,18,07,46,7.30
2017,09,18,07,47,7.30
2017,09,18,07,48,7.30
2017,09,18,07,49,7.40
2017,09,18,07,50,7.40
2017,09,18,07,51,7.40
2017,09,18,07,52,7.40
2017,09,18,07,53,7.50
2017,09,18,07,54,7.50
2017,09,18,07,55,7.60
2017,09,18,07,56,7.60
2017,09,18,07,57,7.70
2017,09,18,07,58,7.70
2017,09,18,07,59,7.70
2017,09,18,08,00,7.80
2017,09,18,08,01,7.80
2017,09,18,08,02,7.80
2017,09,18,08,03,7.90
2017,09,18,08,04,7.90
2017,09,18,08,05,8.00
2017,09,18,08,06,8.00
2017,09,18,08,07,8.10
2017,09,18,08,08,8.10
2017,09,18,08,09,8.20
2017,09,18,08,10,8.30
2017,09,18,08,11,8.40
2017,09,18,08,12,8.40
2017,09,18,08,13,8.50
2017,09,18,08,14,8.60
2017,09,18,08,15,8.60
2017,09,18,08,16,8.70
2017,09,18,08,17,8.80
2017,09,18,08,18,8.90
2017,09,18,08,19,9.00
2017,09,18,08,20,9.10
2017,09,18,08,21,9.20
2017,09,18,08,22,9.20
2017,09,18,08,23,9.30
2017,09,18,08,24,9.30
2017,09,18,08,25,9.30
2017,09,18,08,26,9.40
2017,09,18,08,27,9.50
2017,09,18,08,28,9.50
2017,09,18,08,29,9.50
2017,09,18,08,30,9.60
2017,09,18,08,31,9.60
2017,09,18,08,32,9.60
2017,09,18,08,33,9.70
2017,09,18,08,34,9.70
2017,09,18,08,35,9.70
2017,09,18,08,36,9.80
2017,09,18,08,37,9.80
2017,09,18,08,38,9.80
2017,09,18,08,39,9.80
2017,09,18,08,40,9.80
2017,09,18,08,41,9.90
2017,09,18,08,42,9.90
2017,09,18,08,43,9.90
2017,09,18,08,44,9.90
2017,09,18,08,45,10.00
2017,09,18,08,46,10.00
2017,09,18,08,47,10.00
2017,09,18,08,48,10.00
2017,09,18,08,49,10.00
2017,09,18,08,50,10.10
2017,09,18,08,51,10.10
2017,09,18,08,52,10.10
2017,09,18,08,53,10.20
2017,09,18,08,54,10.20
2017,09,18,08,55,10.20
2017,09,18,08,56,10.20
2017,09,18,08,57,10.20
2017,09,18,08,58,10.30
2017,09,18,08,59,10.30
2017,09,18,09,00,10.30
2017,09,18,09,01,10.30
2017,09,18,09,02,10.30
2017,09,18,09,03,10.30
2017,09,18,09,04,10.30
2017,09,18,09,05,10.40
2017,09,18,09,06,10.40
2017,09,18,09,07,10.40
2017,09,18,09,08,10.50
2017,09,18,09,09,10.50
2017,09,18,09,10,10.50
2017,09,18,09,11,10.60
2017,09,18,09,12,10.60
2017,09,18,09,13,10.70
2017,09,18,09,14,10.70
2017,09,18,09,15,10.70
2017,09,18,09,16,10.80
2017,09,18,09,17,10.80
2017,09,18,09,18,10.80
2017,09,18,09,19,10.90
2017,09,18,09,20,10.90
2017,09,18,09,21,10.90
2017,09,18,09,22,10.90
2017,09,18,09,23,11.00
2017,09,18,09,24,11.00
2017,09,18,09,25,11.10
2017,09,18,09,26,11.10
2017,09,18,09,27,11.10
2017,09,18,09,28,11.20
2017,09,18,09,29,11.20
2017,09,18,09,30,11.20
2017,09,18,09,31,11.20
2017,09,18,09,32,11.30
2017,09,18,09,33,11.30
2017,09,18,09,34,11.30
2017,09,18,09,35,11.40
2017,09,18,09,36,11.40
2017,09,18,09,37,11.40
2017,09,18,09,38,11.50
2017,09,18,09,39,11.50
2017,09,18,09,40,11.50
2017,09,18,09,41,11.60
2017,09,18,09,42,11.60
2017,09,18,09,43,11.60
2017,09,18,09,44,11.70
2017,09,18,09,45,11.70
2017,09,18,09,46,11.70
2017,09,18,09,47,11.70
2017,09,18,09,48,11.80
2017,09,18,09,49,11.80
2017,09,18,09,50,11.80
2017,09,18,09,51,11.80
2017,09,18,09,52,11.90
2017,09,18,09,53,11.90
2017,09,18,09,54,11.90
2017,09,18,09,55,12.00
2017,09,18,09,56,12.10
2017,09,18,09,57,12.10
2017,09,18,09,58,12.20
2017,09,18,09,59,12.20
2017,09,18,10,00,12.30
2017,09,18,10,01,12.40
2017,09,18,10,02,12.50
2017,09,18,10,03,12.70
2017,09,18,10,04,12.80
2017,09,18,10,05,13.00
2017,09,18,10,06,13.10
2017,09,18,10,07,13.20
2017,09,18,10,08,13.30
2017,09,18,10,09,13.40
2017,09,18,10,10,13.50
2017,09,18,10,11,13.60
2017,09,18,10,12,13.70
2017,09,18,10,13,13.90
2017,09,18,10,14,14.00
2017,09,18,10,15,14.10
2017,09,18,10,16,14.20
2017,09,18,10,17,14.30
2017,09,18,10,18,14.40
2017,09,18,10,19,14.50
2017,09,18,10,20,14.60
2017,09,18,10,21,14.70
2017,09,18,10,22,14.80
2017,09,18,10,23,14.90
2017,09,18,10,24,15.00
2017,09,18,10,25,15.10
2017,09,18,10,26,15.10
2017,09,18,10,27,15.20
2017,09,18,10,28,15.20
2017,09,18,10,29,15.30
2017,09,18,10,30,15.30
2017,09,18,10,31,15.30
2017,09,18,10,32,15.30
2017,09,18,10,33,15.30
2017,09,18,10,34,15.40
2017,09,18,10,35,15.50
2017,09,18,10,36,15.50
2017,09,18,10,37,15.60
2017,09,18,10,38,15.70
2017,09,18,10,39,15.80
2017,09,18,10,40,15.80
2017,09,18,10,41,15.80
2017,09,18,10,42,15.80
2017,09,18,10,43,15.70
2017,09,18,10,44,15.60
2017,09,18,10,45,15.50
2017,09,18,10,46,15.40
2017,09,18,10,47,15.30
2017,09,18,10,48,15.20
2017,09,18,10,49,15.00
2017,09,18,10,50,14.90
2017,09,18,10,51,14.80
2017,09,18,10,52,14.80
2017,09,18,10,53,14.70
2017,09,18,10,54,14.60
2017,09,18,10,55,14.60
2017,09,18,10,56,14.50
2017,09,18,10,57,14.40
2017,09,18,10,58,14.40
2017,09,18,10,59,14.40
2017,09,18,11,00,14.30
2017,09,18,11,01,14.30
2017,09,18,11,02,14.20
2017,09,18,11,03,14.20
2017,09,18,11,04,14.20
2017,09,18,11,05,14.30
2017,09,18,11,06,14.30
2017,09,18,11,07,14.40
2017,09,18,11,08,14.40
2017,09,18,11,09,14.40
2017,09,18,11,10,14.50
2017,09,18,11,11,14.50
2017,09,18,11,12,14.50
2017,09,18,11,13,14.60
2017,09,18,11,14,14.60
2017,09,18,11,15,14.60
2017,09,18,11,16,14.60
2017,09,18,11,17,14.60
2017,09,18,11,18,14.60
2017,09,18,11,19,14.60
2017,09,18,11,20,14.60
2017,09,18,11,21,14.60
2017,09,18,11,22,14.70
2017,09,18,11,23,14.70
2017,09,18,11,24,14.80
2017,09,18,11,25,14.90
2017,09,18,11,26,15.00
2017,09,18,11,27,15.10
2017,09,18,11,28,15.10
2017,09,18,11,29,15.20
2017,09,18,11,30,15.30
2017,09,18,11,31,15.30
2017,09,18,11,32,15.40
2017,09,18,11,33,15.50
2017,09,18,11,34,15.60
2017,09,18,11,35,15.70
2017,09,18,11,36,15.80
2017,09,18,11,37,15.80
2017,09,18,11,38,15.90
2017,09,18,11,39,16.00
2017,09,18,11,40,16.10
2017,09,18,11,41,16.20
2017,09,18,11,42,16.30
2017,09,18,11,43,16.30
2017,09,18,11,44,16.40
2017,09,18,11,45,16.40
2017,09,18,11,46,16.40
2017,09,18,11,47,16.50
2017,09,18,11,48,16.50
2017,09,18,11,49,16.50
2017,09,18,11,50,16.60
2017,09,18,11,51,16.70
2017,09,18,11,52,16.70
2017,09,18,11,53,16.80
2017,09,18,11,54,16.80
2017,09,18,11,55,16.80
2017,09,18,11,56,16.80
2017,09,18,11,57,16.80
2017,09,18,11,58,16.80
2017,09,18,11,59,16.70
2017,09,18,12,00,16.70
2017,09,18,12,01,16.60
2017,09,18,12,02,16.60
2017,09,18,12,03,16.50
2017,09,18,12,04,16.40
2017,09,18,12,05,16.30
2017,09,18,12,06,16.20
2017,09,18,12,07,16.10
2017,09,18,12,08,16.00
2017,09,18,12,09,15.90
2017,09,18,12,10,15.80
2017,09,18,12,11,15.70
2017,09,18,12,12,15.60
2017,09,18,12,13,15.50
2017,09,18,12,14,15.40
2017,09,18,12,15,15.30
2017,09,18,12,16,15.20
2017,09,18,12,17,15.10
2017,09,18,12,18,15.00
2017,09,18,12,19,14.90
2017,09,18,12,20,14.90
2017,09,18,12,21,14.80
2017,09,18,12,22,14.80
2017,09,18,12,23,14.80
2017,09,18,12,24,14.80
2017,09,18,12,25,14.80
2017,09,18,12,26,14.80
2017,09,18,12,27,14.80
2017,09,18,12,28,14.80
2017,09,18,12,29,14.70
2017,09,18,12,30,14.70
2017,09,18,12,31,14.70
2017,09,18,12,32,14.60
2017,09,18,12,33,14.60
2017,09,18,12,34,14.60
2017,09,18,12,35,14.60
2017,09,18,12,36,14.50
2017,09,18,12,37,14.50
2017,09,18,12,38,14.50
2017,09,18,12,39,14.50
2017,09,18,12,40,14.60
2017,09,18,12,41,14.60
2017,09,18,12,42,14.60
2017,09,18,12,43,14.60
2017,09,18,12,44,14.60
2017,09,18,12,45,14.60
2017,09,18,12,46,14.60
2017,09,18,12,47,14.60
2017,09,18,12,48,14.70
2017,09,18,12,49,14.70
2017,09,18,12,50,14.80
2017,09,18,12,51,14.80
2017,09,18,12,52,14.90
2017,09,18,12,53,15.00
2017,09,18,12,54,15.10
2017,09,18,12,55,15.30
2017,09,18,12,56,15.40
2017,09,18,12,57,15.50
2017,09,18,12,58,15.60
2017,09,18,12,59,15.80
2017,09,18,13,00,15.90
2017,09,18,13,01,16.00
2017,09,18,13,02,16.10
2017,09,18,13,03,16.20
2017,09,18,13,04,16.20
2017,09,18,13,05,16.20
2017,09,18,13,06,16.20
2017,09,18,13,07,16.10
2017,09,18,13,08,16.10
2017,09,18,13,09,16.00
2017,09,18,13,10,15.90
2017,09,18,13,11,15.90
2017,09,18,13,12,15.80
2017,09,18,13,13,15.80
2017,09,18,13,14,15.80
2017,09,18,13,15,15.70
2017,09,18,13,16,15.70
2017,09,18,13,17,15.60
2017,09,18,13,18,15.50
2017,09,18,13,19,15.50
2017,09,18,13,20,15.40
2017,09,18,13,21,15.40
2017,09,18,13,22,15.40
2017,09,18,13,23,15.40
2017,09,18,13,24,15.40
2017,09,18,13,25,15.40
2017,09,18,13,26,15.40
2017,09,18,13,27,15.40
2017,09,18,13,28,15.50
2017,09,18,13,29,15.50
2017,09,18,13,30,15.60
2017,09,18,13,31,15.60
2017,09,18,13,32,15.50
2017,09,18,13,33,15.50
2017,09,18,13,34,15.40
2017,09,18,13,35,15.40
2017,09,18,13,36,15.40
2017,09,18,13,37,15.30
2017,09,18,13,38,15.30
2017,09,18,13,39,15.30
2017,09,18,13,40,15.30
2017,09,18,13,41,15.30
2017,09,18,13,42,15.30
2017,09,18,13,43,15.30
2017,09,18,13,44,15.30
2017,09,18,13,45,15.30
2017,09,18,13,46,15.20
2017,09,18,13,47,15.20
2017,09,18,13,48,15.20
2017,09,18,13,49,15.20
2017,09,18,13,50,15.20
2017,09,18,13,51,15.10
2017,09,18,13,52,15.10
2017,09,18,13,53,15.10
2017,09,18,13,54,15.10
2017,09,18,13,55,15.10
2017,09,18,13,56,15.10
2017,09,18,13,57,15.10
2017,09,18,13,58,15.10
2017,09,18,13,59,15.20
2017,09,18,14,00,15.20
2017,09,18,14,01,15.20
2017,09,18,14,02,15.20
2017,09,18,14,03,15.30
2017,09,18,14,04,15.30
2017,09,18,14,05,15.40
2017,09,18,14,06,15.50
2017,09,18,14,07,15.50
2017,09,18,14,08,15.60
2017,09,18,14,09,15.70
2017,09,18,14,10,15.70
2017,09,18,14,11,15.70
2017,09,18,14,12,15.80
2017,09,18,14,13,15.80
2017,09,18,14,14,15.80
2017,09,18,14,15,15.90
2017,09,18,14,16,15.90
2017,09,18,14,17,15.90
2017,09,18,14,18,15.90
2017,09,18,14,19,15.90
2017,09,18,14,20,15.90
2017,09,18,14,21,15.90
2017,09,18,14,22,15.90
2017,09,18,14,23,15.80
2017,09,18,14,24,15.80
2017,09,18,14,25,15.80
2017,09,18,14,26,15.80
2017,09,18,14,27,15.80
2017,09,18,14,28,15.70
2017,09,18,14,29,15.70
2017,09,18,14,30,15.70
2017,09,18,14,31,15.60
2017,09,18,14,32,15.60
2017,09,18,14,33,15.50
2017,09,18,14,34,15.50
2017,09,18,14,35,15.40
2017,09,18,14,36,15.40
2017,09,18,14,37,15.40
2017,09,18,14,38,15.30
2017,09,18,14,39,15.30
2017,09,18,14,40,15.20
2017,09,18,14,41,15.10
2017,09,18,14,42,15.00
2017,09,18,14,43,15.00
2017,09,18,14,44,14.90
2017,09,18,14,45,14.90
2017,09,18,14,46,14.90
2017,09,18,14,47,14.90
2017,09,18,14,48,14.90
2017,09,18,14,49,14.90
2017,09,18,14,50,14.90
2017,09,18,14,51,14.90
2017,09,18,14,52,14.80
2017,09,18,14,53,14.80
2017,09,18,14,54,14.80
2017,09,18,14,55,14.80
2017,09,18,14,56,14.80
2017,09,18,14,57,14.80
2017,09,18,14,58,14.80
2017,09,18,14,59,14.80
2017,09,18,15,00,14.80
2017,09,18,15,01,14.70
2017,09,18,15,02,14.60
2017,09,18,15,03,14.60
2017,09,18,15,04,14.50
2017,09,18,15,05,14.50
2017,09,18,15,06,14.40
2017,09,18,15,07,14.40
2017,09,18,15,08,14.40
2017,09,18,15,09,14.30
2017,09,18,15,10,14.30
2017,09,18,15,11,14.30
2017,09,18,15,12,14.30
2017,09,18,15,13,14.20
2017,09,18,15,14,14.20
2017,09,18,15,15,14.10
2017,09,18,15,16,14.10
2017,09,18,15,17,14.00
2017,09,18,15,18,14.00
2017,09,18,15,19,13.90
2017,09,18,15,20,13.90
2017,09,18,15,21,13.90
2017,09,18,15,22,13.80
2017,09,18,15,23,13.80
2017,09,18,15,24,13.70
2017,09,18,15,25,13.70
2017,09,18,15,26,13.60
2017,09,18,15,27,13.60
2017,09,18,15,28,13.50
2017,09,18,15,29,13.50
2017,09,18,15,30,13.40
2017,09,18,15,31,13.40
2017,09,18,15,32,13.40
2017,09,18,15,33,13.40
2017,09,18,15,34,13.30
2017,09,18,15,35,13.30
2017,09,18,15,36,13.30
2017,09,18,15,37,13.20
2017,09,18,15,38,13.20
2017,09,18,15,39,13.20
2017,09,18,15,40,13.20
2017,09,18,15,41,13.20
2017,09,18,15,42,13.20
2017,09,18,15,43,13.20
2017,09,18,15,44,13.20
2017,09,18,15,45,13.20
2017,09,18,15,46,13.20
2017,09,18,15,47,13.20
2017,09,18,15,48,13.30
2017,09,18,15,49,13.30
2017,09,18,15,50,13.30
2017,09,18,15,51,13.30
2017,09,18,15,52,13.40
2017,09,18,15,53,13.40
2017,09,18,15,54,13.50
2017,09,18,15,55,13.50
2017,09,18,15,56,13.60
2017,09,18,15,57,13.60
2017,09,18,15,58,13.70
2017,09,18,15,59,13.70
2017,09,18,16,00,13.70
2017,09,18,16,01,13.70
2017,09,18,16,02,13.70
2017,09,18,16,03,13.70
2017,09,18,16,04,13.70
2017,09,18,16,05,13.70
2017,09,18,16,06,13.70
2017,09,18,16,07,13.70
2017,09,18,16,08,13.70
2017,09,18,16,09,13.70
2017,09,18,16,10,13.70
2017,09,18,16,11,13.70
2017,09,18,16,12,13.80
2017,09,18,16,13,13.80
2017,09,18,16,14,13.80
2017,09,18,16,15,13.90
2017,09,18,16,16,13.90
2017,09,18,16,17,13.90
2017,09,18,16,18,13.90
2017,09,18,16,19,13.90
2017,09,18,16,20,13.90
2017,09,18,16,21,14.00
2017,09,18,16,22,14.00
2017,09,18,16,23,14.00
2017,09,18,16,24,14.00
2017,09,18,16,25,14.10
2017,09,18,16,26,14.10
2017,09,18,16,27,14.10
2017,09,18,16,28,14.20
2017,09,18,16,29,14.20
2017,09,18,16,30,14.20
2017,09,18,16,31,14.20
2017,09,18,16,32,14.30
2017,09,18,16,33,14.20
2017,09,18,16,34,14.20
2017,09,18,16,35,14.20
2017,09,18,16,36,14.20
2017,09,18,16,37,14.10
2017,09,18,16,38,14.10
2017,09,18,16,39,14.00
2017,09,18,16,40,14.00
2017,09,18,16,41,14.00
2017,09,18,16,42,13.90
2017,09,18,16,43,13.90
2017,09,18,16,44,13.90
2017,09,18,16,45,13.90
2017,09,18,16,46,13.90
2017,09,18,16,47,13.90
2017,09,18,16,48,13.90
2017,09,18,16,49,13.90
2017,09,18,16,50,13.80
2017,09,18,16,51,13.80
2017,09,18,16,52,13.80
2017,09,18,16,53,13.80
2017,09,18,16,54,13.80
2017,09,18,16,55,13.80
2017,09,18,16,56,13.80
2017,09,18,16,57,13.80
2017,09,18,16,58,13.70
2017,09,18,16,59,13.70
2017,09,18,17,00,13.70
2017,09,18,17,01,13.70
2017,09,18,17,02,13.70
2017,09,18,17,03,13.70
2017,09,18,17,04,13.70
2017,09,18,17,05,13.70
2017,09,18,17,06,13.70
2017,09,18,17,07,13.70
2017,09,18,17,08,13.70
2017,09,18,17,09,13.70
2017,09,18,17,10,13.70
2017,09,18,17,11,13.70
2017,09,18,17,12,13.70
2017,09,18,17,13,13.70
2017,09,18,17,14,13.70
2017,09,18,17,15,13.70
2017,09,18,17,16,13.70
2017,09,18,17,17,13.70
2017,09,18,17,18,13.70
2017,09,18,17,19,13.70
2017,09,18,17,20,13.70
2017,09,18,17,21,13.70
2017,09,18,17,22,13.70
2017,09,18,17,23,13.70
2017,09,18,17,24,13.70
2017,09,18,17,25,13.70
2017,09,18,17,26,13.70
2017,09,18,17,27,13.70
2017,09,18,17,28,13.70
2017,09,18,17,29,13.70
2017,09,18,17,30,13.70
2017,09,18,17,31,13.70
2017,09,18,17,32,13.70
2017,09,18,17,33,13.70
2017,09,18,17,34,13.70
2017,09,18,17,35,13.70
2017,09,18,17,36,13.70
2017,09,18,17,37,13.70
2017,09,18,17,38,13.70
2017,09,18,17,39,13.70
2017,09,18,17,40,13.70
2017,09,18,17,41,13.70
2017,09,18,17,42,13.70